This is the latest recevied weather packets stored in our database for station/object OK3MS-5. If no packets are shown the sender has not sent any weather packets the latest 10 day(s).
| Time | Temp. | Humidity | Pressure | Rain* | Wind** | Luminosity | Snow |
|---|---|---|---|---|---|---|---|
| 1777306504 | 15.56° C | 32% | 1018.1 hPa | 0 mm | - | 111 W/m² | - |
| 1777306204 | 15.56° C | 32% | 1018.1 hPa | 0 mm | - | 118 W/m² | - |
| 1777305904 | 15.56° C | 32% | 1018 hPa | 0 mm | - | 121 W/m² | - |
| 1777305609 | 16.11° C | 32% | 1018 hPa | 0 mm | - | 119 W/m² | - |
| 1777305307 | 15.56° C | 31% | 1018 hPa | 0 mm | - | 117 W/m² | - |
| 1777305006 | 15.56° C | 30% | 1018.1 hPa | 0 mm | - | 128 W/m² | - |
| 1777304709 | 16.11° C | 30% | 1018.2 hPa | 0 mm | - | 148 W/m² | - |
| 1777304405 | 16.11° C | 30% | 1018.2 hPa | 0 mm | - | 174 W/m² | - |
| 1777304104 | 16.11° C | 28% | 1018.2 hPa | 0 mm | - | 183 W/m² | - |
| 1777303802 | 15.56° C | 31% | 1018.3 hPa | 0 mm | - | 190 W/m² | - |
| 1777303504 | 16.11° C | 30% | 1018.2 hPa | 0 mm | - | 175 W/m² | - |
| 1777303203 | 16.11° C | 28% | 1018.1 hPa | 0 mm | - | 161 W/m² | - |
| 1777302904 | 16.67° C | 29% | 1018.2 hPa | 0 mm | - | 240 W/m² | - |
| 1777302603 | 17.22° C | 29% | 1017.9 hPa | 0 mm | - | 291 W/m² | - |
| 1777302304 | 17.78° C | 29% | 1017.8 hPa | 0 mm | - | 312 W/m² | - |
| 1777302005 | 16.67° C | 27% | 1018.1 hPa | 0 mm | - | 367 W/m² | - |
| 1777301705 | 16.11° C | 28% | 1018.3 hPa | 0 mm | - | 363 W/m² | - |
| 1777301404 | 16.11° C | 30% | 1018.3 hPa | 0 mm | - | 424 W/m² | - |
| 1777301103 | 17.22° C | 29% | 1018.2 hPa | 0 mm | - | 430 W/m² | - |
| 1777300804 | 17.78° C | 25% | 1018.2 hPa | 0 mm | - | 464 W/m² | - |
| 1777300504 | 17.22° C | 27% | 1018.2 hPa | 0 mm | - | 485 W/m² | - |
| 1777300206 | 16.67° C | 26% | 1018.2 hPa | 0 mm | - | 496 W/m² | - |
| 1777299905 | 17.22° C | 26% | 1018.3 hPa | 0 mm | - | 298 W/m² | - |
| 1777299604 | 16.67° C | 27% | 1018.4 hPa | 0 mm | - | 472 W/m² | - |
| 1777299303 | 16.67° C | 26% | 1018.4 hPa | 0 mm | - | 467 W/m² | - |
* Rain latest hour (hover to see other rain measurements)
** Current wind speed in m/s (hover to see current wind gust speed)